Time,TemperatureF,DewpointF,PressureIn,WindDirection,WindDirectionDegrees,WindSpeedMPH,WindSpeedGustMPH,Humidity,HourlyPrecipIn,Conditions,Clouds,dailyrainin,SoftwareType,DateUTC
2013-02-26 00:00:00,33.8,31.5,29.97,SW,225,0.0,1.7,91,0.02,,---,0.02,VWS V14.00,2013-02-26 05:00:00,
2013-02-26 00:05:00,33.6,31.3,29.97,SW,225,0.0,0.0,91,0.02,,---,0.00,VWS V14.00,2013-02-26 05:05:00,
2013-02-26 00:10:00,33.6,31.5,29.97,SSW,202,0.0,0.0,92,0.02,,---,0.00,VWS V14.00,2013-02-26 05:10:00,
2013-02-26 00:15:00,33.6,31.5,29.96,SSW,202,0.0,0.0,92,0.02,,---,0.00,VWS V14.00,2013-02-26 05:15:00,
2013-02-26 00:20:00,33.6,31.5,29.95,SSW,202,0.8,0.8,92,0.00,,---,0.00,VWS V14.00,2013-02-26 05:20:00,
2013-02-26 00:25:00,33.6,31.8,29.95,SSW,202,0.0,0.8,93,0.00,,---,0.00,VWS V14.00,2013-02-26 05:25:00,
2013-02-26 00:30:00,33.6,31.5,29.95,SE,135,0.0,0.0,92,0.00,,---,0.00,VWS V14.00,2013-02-26 05:30:00,
2013-02-26 00:35:00,33.6,31.5,29.94,SE,135,1.1,1.1,92,0.00,,---,0.00,VWS V14.00,2013-02-26 05:35:00,
2013-02-26 00:40:00,33.4,31.3,29.94,SE,135,0.0,0.0,92,0.00,,---,0.00,VWS V14.00,2013-02-26 05:40:00,
2013-02-26 00:45:00,33.4,31.6,29.94,SE,135,0.0,0.0,93,0.00,,---,0.00,VWS V14.00,2013-02-26 05:45:00,
2013-02-26 00:50:00,33.4,31.6,29.94,SE,135,0.6,0.6,93,0.00,,---,0.00,VWS V14.00,2013-02-26 05:50:00,
2013-02-26 00:55:00,33.4,31.6,29.95,SSW,202,0.0,0.6,93,0.00,,---,0.00,VWS V14.00,2013-02-26 05:55:00,
2013-02-26 01:00:00,33.4,31.6,29.94,SSW,202,2.0,2.0,93,0.00,,---,0.00,VWS V14.00,2013-02-26 06:00:00,
2013-02-26 01:05:00,33.2,31.4,29.94,SSW,202,0.0,2.0,93,0.00,,---,0.00,VWS V14.00,2013-02-26 06:05:00,
2013-02-26 01:10:00,33.2,31.4,29.94,South,180,4.2,4.2,93,0.00,,---,0.00,VWS V14.00,2013-02-26 06:10:00,
2013-02-26 01:15:00,33.0,31.2,29.94,South,180,0.0,4.2,93,0.02,,---,0.02,VWS V14.00,2013-02-26 06:15:00,
2013-02-26 01:20:00,33.0,31.5,29.94,South,180,0.0,0.0,94,0.02,,---,0.02,VWS V14.00,2013-02-26 06:20:00,
2013-02-26 01:26:00,33.0,31.5,29.94,South,180,0.0,0.0,94,0.02,,---,0.02,VWS V14.00,2013-02-26 06:26:00,
2013-02-26 01:31:00,33.0,31.5,29.93,South,180,0.0,0.0,94,0.02,,---,0.02,VWS V14.00,2013-02-26 06:31:00,
2013-02-26 01:36:00,32.9,31.4,29.93,South,180,1.5,2.0,94,0.04,,---,0.04,VWS V14.00,2013-02-26 06:36:00,
2013-02-26 01:41:00,32.9,31.4,29.93,South,180,3.1,3.1,94,0.04,,---,0.04,VWS V14.00,2013-02-26 06:41:00,
2013-02-26 01:46:00,32.7,31.2,29.92,SSE,158,0.0,3.1,94,0.04,,---,0.04,VWS V14.00,2013-02-26 06:46:00,
2013-02-26 01:51:00,32.7,31.2,29.92,SSE,158,2.2,2.2,94,0.04,,---,0.04,VWS V14.00,2013-02-26 06:51:00,
2013-02-26 01:56:00,32.7,31.2,29.92,SSE,158,1.1,2.2,94,0.04,,---,0.04,VWS V14.00,2013-02-26 06:56:00,
2013-02-26 02:01:00,32.7,31.4,29.91,SSE,158,0.0,0.0,95,0.04,,---,0.04,VWS V14.00,2013-02-26 07:01:00,
2013-02-26 02:06:00,32.7,31.4,29.91,SSE,158,0.0,3.5,95,0.06,,---,0.06,VWS V14.00,2013-02-26 07:06:00,
2013-02-26 02:11:00,32.7,31.4,29.92,SSE,158,0.0,0.0,95,0.06,,---,0.06,VWS V14.00,2013-02-26 07:11:00,
2013-02-26 02:16:00,32.7,31.4,29.91,SSE,158,0.0,0.0,95,0.06,,---,0.06,VWS V14.00,2013-02-26 07:16:00,
2013-02-26 02:21:00,32.7,31.4,29.90,SSE,158,0.0,0.0,95,0.04,,---,0.06,VWS V14.00,2013-02-26 07:21:00,
2013-02-26 02:26:00,32.7,31.4,29.90,SSE,158,0.0,0.0,95,0.06,,---,0.08,VWS V14.00,2013-02-26 07:26:00,
2013-02-26 02:31:00,32.7,31.4,29.89,SSE,158,0.0,0.0,95,0.06,,---,0.08,VWS V14.00,2013-02-26 07:31:00,
2013-02-26 02:36:00,32.7,31.4,29.89,SSE,158,0.6,2.0,95,0.06,,---,0.08,VWS V14.00,2013-02-26 07:36:00,
2013-02-26 02:41:00,32.7,31.4,29.89,SSE,158,1.1,1.1,95,0.04,,---,0.08,VWS V14.00,2013-02-26 07:41:00,
2013-02-26 02:46:00,32.7,31.4,29.89,SSE,158,2.6,2.6,95,0.04,,---,0.08,VWS V14.00,2013-02-26 07:46:00,
2013-02-26 02:51:00,32.5,31.2,29.89,SSE,158,0.0,0.0,95,0.04,,---,0.08,VWS V14.00,2013-02-26 07:51:00,
2013-02-26 02:56:00,32.5,31.2,29.89,SSE,158,0.0,0.0,95,0.04,,---,0.08,VWS V14.00,2013-02-26 07:56:00,
2013-02-26 03:01:00,32.5,31.2,29.88,SSE,158,0.0,0.0,95,0.06,,---,0.10,VWS V14.00,2013-02-26 08:01:00,
2013-02-26 03:06:00,32.5,31.2,29.88,SSE,158,0.0,1.1,95,0.06,,---,0.10,VWS V14.00,2013-02-26 08:06:00,
2013-02-26 03:11:00,32.5,31.2,29.87,SSE,158,0.0,0.0,95,0.04,,---,0.10,VWS V14.00,2013-02-26 08:11:00,
2013-02-26 03:16:00,32.5,31.5,29.87,SSE,158,0.0,1.5,96,0.06,,---,0.12,VWS V14.00,2013-02-26 08:16:00,
2013-02-26 03:21:00,32.5,31.5,29.87,SSE,158,0.0,0.0,96,0.06,,---,0.12,VWS V14.00,2013-02-26 08:21:00,
2013-02-26 03:26:00,32.5,31.5,29.86,SSE,158,0.0,1.3,96,0.10,,---,0.17,VWS V14.00,2013-02-26 08:26:00,
2013-02-26 03:31:00,32.5,31.5,29.87,SSE,158,0.0,0.0,96,0.10,,---,0.19,VWS V14.00,2013-02-26 08:31:00,
2013-02-26 03:36:00,32.5,31.5,29.87,SSE,158,0.0,0.0,96,0.12,,---,0.20,VWS V14.00,2013-02-26 08:36:00,
2013-02-26 03:41:00,32.7,31.7,29.88,SSE,158,0.0,0.0,96,0.14,,---,0.22,VWS V14.00,2013-02-26 08:41:00,
2013-02-26 03:46:00,32.7,31.7,29.89,SSE,158,0.0,0.0,96,0.14,,---,0.22,VWS V14.00,2013-02-26 08:46:00,
2013-02-26 03:51:00,32.7,31.7,29.89,SSE,158,0.0,0.0,96,0.16,,---,0.24,VWS V14.00,2013-02-26 08:51:00,
2013-02-26 03:56:00,32.7,31.7,29.87,SSE,158,0.0,0.0,96,0.19,,---,0.27,VWS V14.00,2013-02-26 08:56:00,
2013-02-26 04:01:00,32.7,31.7,29.87,SSE,158,0.0,0.0,96,0.19,,---,0.29,VWS V14.00,2013-02-26 09:01:00,
2013-02-26 04:06:00,32.7,31.7,29.87,SSE,158,0.0,0.0,96,0.20,,---,0.31,VWS V14.00,2013-02-26 09:06:00,
2013-02-26 04:11:00,32.9,31.9,29.87,SSE,158,0.0,0.0,96,0.20,,---,0.31,VWS V14.00,2013-02-26 09:11:00,
2013-02-26 04:16:00,32.9,31.9,29.87,SSE,158,0.0,2.4,96,0.22,,---,0.33,VWS V14.00,2013-02-26 09:16:00,
2013-02-26 04:21:00,32.7,31.7,29.87,SSE,158,0.0,0.0,96,0.20,,---,0.33,VWS V14.00,2013-02-26 09:21:00,
2013-02-26 04:26:00,32.9,31.9,29.87,SSE,158,0.0,0.0,96,0.22,,---,0.35,VWS V14.00,2013-02-26 09:26:00,
2013-02-26 04:31:00,32.9,32.1,29.86,SSE,158,0.0,0.0,97,0.19,,---,0.37,VWS V14.00,2013-02-26 09:31:00,
2013-02-26 04:36:00,32.9,32.1,29.86,SSE,158,0.0,0.0,97,0.19,,---,0.37,VWS V14.00,2013-02-26 09:36:00,
2013-02-26 04:41:00,32.9,31.9,29.85,SSE,158,0.0,0.0,96,0.17,,---,0.39,VWS V14.00,2013-02-26 09:41:00,
2013-02-26 04:46:00,32.9,32.1,29.85,SSE,158,0.0,0.0,97,0.17,,---,0.39,VWS V14.00,2013-02-26 09:46:00,
2013-02-26 04:51:00,32.9,31.9,29.85,SSE,158,0.0,0.0,96,0.17,,---,0.41,VWS V14.00,2013-02-26 09:51:00,
2013-02-26 04:56:00,32.9,32.1,29.85,SSE,158,0.0,0.0,97,0.19,,---,0.43,VWS V14.00,2013-02-26 09:56:00,
2013-02-26 05:01:00,32.9,32.1,29.85,SSE,158,0.0,0.0,97,0.16,,---,0.45,VWS V14.00,2013-02-26 10:01:00,
2013-02-26 05:06:00,32.9,32.1,29.85,SSE,158,0.0,0.0,97,0.16,,---,0.45,VWS V14.00,2013-02-26 10:06:00,
2013-02-26 05:11:00,32.9,32.1,29.85,SSE,158,0.0,0.0,97,0.16,,---,0.47,VWS V14.00,2013-02-26 10:11:00,
2013-02-26 05:16:00,32.9,32.1,29.85,SSE,158,0.0,0.0,97,0.19,,---,0.49,VWS V14.00,2013-02-26 10:16:00,
2013-02-26 05:21:00,32.9,32.1,29.85,SSE,158,0.0,0.0,97,0.19,,---,0.51,VWS V14.00,2013-02-26 10:21:00,
2013-02-26 05:26:00,33.0,32.2,29.85,SSE,158,0.0,0.0,97,0.20,,---,0.53,VWS V14.00,2013-02-26 10:26:00,
2013-02-26 05:31:00,33.0,32.2,29.85,SSE,158,0.0,0.0,97,0.20,,---,0.55,VWS V14.00,2013-02-26 10:31:00,
2013-02-26 05:36:00,33.0,32.2,29.84,SSE,158,0.0,0.0,97,0.20,,---,0.55,VWS V14.00,2013-02-26 10:36:00,
2013-02-26 05:41:00,33.0,32.2,29.84,SSE,158,0.0,0.0,97,0.20,,---,0.59,VWS V14.00,2013-02-26 10:41:00,
2013-02-26 05:46:00,33.0,32.2,29.84,SSE,158,0.0,0.0,97,0.20,,---,0.59,VWS V14.00,2013-02-26 10:46:00,
2013-02-26 05:51:00,33.0,32.2,29.83,SSE,158,0.0,0.0,97,0.20,,---,0.61,VWS V14.00,2013-02-26 10:51:00,
2013-02-26 05:56:00,33.0,32.2,29.83,SSE,158,0.0,0.0,97,0.22,,---,0.63,VWS V14.00,2013-02-26 10:56:00,
2013-02-26 06:01:00,33.0,32.2,29.82,SSE,158,0.0,0.0,97,0.20,,---,0.65,VWS V14.00,2013-02-26 11:01:00,
2013-02-26 06:07:00,33.0,32.2,29.82,SSE,158,0.0,0.0,97,0.20,,---,0.65,VWS V14.00,2013-02-26 11:07:00,
2013-02-26 06:11:00,33.0,32.2,29.82,SSE,158,0.0,0.0,97,0.19,,---,0.65,VWS V14.00,2013-02-26 11:11:00,
2013-02-26 06:17:00,33.0,32.2,29.82,SSE,158,0.0,0.0,97,0.20,,---,0.67,VWS V14.00,2013-02-26 11:17:00,
2013-02-26 06:22:00,33.0,32.5,29.81,SSE,158,0.0,0.0,98,0.16,,---,0.67,VWS V14.00,2013-02-26 11:22:00,
2013-02-26 06:27:00,33.0,32.5,29.82,SSE,158,0.0,0.0,98,0.18,,---,0.69,VWS V14.00,2013-02-26 11:27:00,
2013-02-26 06:32:00,33.0,32.5,29.82,SSE,158,0.0,0.0,98,0.19,,---,0.72,VWS V14.00,2013-02-26 11:32:00,
2013-02-26 06:37:00,33.0,32.5,29.81,SSE,158,0.0,0.0,98,0.19,,---,0.72,VWS V14.00,2013-02-26 11:37:00,
2013-02-26 06:42:00,33.2,32.7,29.80,SSE,158,0.0,0.0,98,0.15,,---,0.74,VWS V14.00,2013-02-26 11:42:00,
2013-02-26 06:47:00,33.2,32.7,29.81,SSE,158,0.0,0.0,98,0.17,,---,0.76,VWS V14.00,2013-02-26 11:47:00,
2013-02-26 06:52:00,33.2,32.7,29.82,SSE,158,0.0,0.0,98,0.16,,---,0.78,VWS V14.00,2013-02-26 11:52:00,
2013-02-26 06:57:00,33.2,32.7,29.82,SSE,158,0.0,0.0,98,0.18,,---,0.80,VWS V14.00,2013-02-26 11:57:00,
2013-02-26 07:02:00,33.2,32.7,29.81,SSE,158,0.0,0.0,98,0.16,,---,0.81,VWS V14.00,2013-02-26 12:02:00,
2013-02-26 07:07:00,33.2,32.7,29.80,SSE,158,0.0,0.0,98,0.20,,---,0.86,VWS V14.00,2013-02-26 12:07:00,
2013-02-26 07:12:00,33.2,32.7,29.81,SSE,158,0.0,0.0,98,0.20,,---,0.86,VWS V14.00,2013-02-26 12:12:00,
2013-02-26 07:17:00,33.2,32.7,29.80,SSE,158,0.0,0.0,98,0.24,,---,0.90,VWS V14.00,2013-02-26 12:17:00,
2013-02-26 07:22:00,33.2,32.7,29.79,SSE,158,0.0,0.0,98,0.24,,---,0.92,VWS V14.00,2013-02-26 12:22:00,
2013-02-26 07:27:00,33.2,32.7,29.79,SSE,158,0.0,0.0,98,0.27,,---,0.94,VWS V14.00,2013-02-26 12:27:00,
2013-02-26 07:32:00,33.2,32.7,29.79,SSE,158,0.0,0.0,98,0.29,,---,0.98,VWS V14.00,2013-02-26 12:32:00,
2013-02-26 07:37:00,33.4,32.9,29.77,SSE,158,0.0,0.0,98,0.29,,---,0.98,VWS V14.00,2013-02-26 12:37:00,
2013-02-26 07:42:00,33.2,32.7,29.77,SSE,158,0.0,0.0,98,0.28,,---,1.02,VWS V14.00,2013-02-26 12:42:00,
2013-02-26 07:47:00,33.4,32.9,29.77,SSE,158,0.0,0.0,98,0.30,,---,1.04,VWS V14.00,2013-02-26 12:47:00,
2013-02-26 07:52:00,33.4,32.9,29.77,SSE,158,0.0,0.0,98,0.29,,---,1.06,VWS V14.00,2013-02-26 12:52:00,
2013-02-26 07:57:00,33.4,32.9,29.78,SSE,158,0.0,0.0,98,0.29,,---,1.06,VWS V14.00,2013-02-26 12:57:00,
2013-02-26 08:02:00,33.6,33.1,29.77,SSE,158,0.0,0.0,98,0.29,,---,1.10,VWS V14.00,2013-02-26 13:02:00,
2013-02-26 08:07:00,33.4,32.9,29.78,SSE,158,0.0,0.0,98,0.33,,---,1.14,VWS V14.00,2013-02-26 13:07:00,
2013-02-26 08:12:00,33.4,32.9,29.79,SSE,158,0.0,0.0,98,0.31,,---,1.17,VWS V14.00,2013-02-26 13:12:00,
2013-02-26 08:17:00,33.6,33.1,29.79,SSE,158,0.0,0.0,98,0.35,,---,1.20,VWS V14.00,2013-02-26 13:17:00,
2013-02-26 08:22:00,33.6,33.1,29.79,SSE,158,0.0,0.0,98,0.31,,---,1.22,VWS V14.00,2013-02-26 13:22:00,
2013-02-26 08:27:00,33.6,33.1,29.79,SSE,158,0.0,0.0,98,0.33,,---,1.24,VWS V14.00,2013-02-26 13:27:00,
2013-02-26 08:32:00,33.6,33.1,29.78,SSE,158,0.0,0.0,98,0.33,,---,1.29,VWS V14.00,2013-02-26 13:32:00,
2013-02-26 08:37:00,33.6,33.1,29.77,SSE,158,0.0,0.0,98,0.33,,---,1.29,VWS V14.00,2013-02-26 13:37:00,
2013-02-26 08:42:00,33.8,33.5,29.77,SSE,158,0.0,0.0,99,0.31,,---,1.33,VWS V14.00,2013-02-26 13:42:00,
2013-02-26 08:47:00,33.8,33.5,29.77,SSE,158,0.0,0.0,99,0.31,,---,1.33,VWS V14.00,2013-02-26 13:47:00,
2013-02-26 08:52:00,33.9,33.7,29.76,SSE,158,0.0,0.0,99,0.28,,---,1.35,VWS V14.00,2013-02-26 13:52:00,
2013-02-26 08:57:00,34.1,33.8,29.76,SSE,158,0.0,0.0,99,0.30,,---,1.37,VWS V14.00,2013-02-26 13:57:00,
2013-02-26 09:02:00,34.3,34.0,29.75,SSE,158,0.0,0.0,99,0.28,,---,1.37,VWS V14.00,2013-02-26 14:02:00,
2013-02-26 09:07:00,34.3,34.0,29.74,SSE,158,0.0,0.0,99,0.31,,---,1.39,VWS V14.00,2013-02-26 14:07:00,
2013-02-26 09:12:00,34.3,34.0,29.73,SSE,158,0.0,0.0,99,0.24,,---,1.41,VWS V14.00,2013-02-26 14:12:00,
2013-02-26 09:17:00,34.3,34.0,29.73,SSE,158,0.0,0.0,99,0.26,,---,1.43,VWS V14.00,2013-02-26 14:17:00,
2013-02-26 09:22:00,34.3,34.0,29.74,SSE,158,0.0,0.0,99,0.22,,---,1.43,VWS V14.00,2013-02-26 14:22:00,
2013-02-26 09:27:00,34.3,34.0,29.74,SSE,158,0.0,0.0,99,0.24,,---,1.45,VWS V14.00,2013-02-26 14:27:00,
2013-02-26 09:32:00,34.3,34.0,29.74,SSW,202,0.0,0.0,99,0.20,,---,1.47,VWS V14.00,2013-02-26 14:32:00,
2013-02-26 09:37:00,34.5,34.2,29.72,SW,225,0.0,0.0,99,0.22,,---,1.49,VWS V14.00,2013-02-26 14:37:00,
2013-02-26 09:42:00,34.5,34.2,29.73,SSE,158,0.0,5.1,99,0.19,,---,1.51,VWS V14.00,2013-02-26 14:42:00,
2013-02-26 09:47:00,34.7,34.5,29.74,South,180,0.0,5.1,99,0.19,,---,1.51,VWS V14.00,2013-02-26 14:47:00,
2013-02-26 09:52:00,34.8,34.5,29.74,SW,225,0.0,0.0,99,0.19,,---,1.53,VWS V14.00,2013-02-26 14:52:00,
2013-02-26 09:57:00,34.8,34.5,29.73,SW,225,0.0,0.0,99,0.19,,---,1.53,VWS V14.00,2013-02-26 14:57:00,
2013-02-26 10:02:00,34.8,34.5,29.72,SW,225,0.0,0.0,99,0.17,,---,1.53,VWS V14.00,2013-02-26 15:02:00,
2013-02-26 10:07:00,35.2,35.0,29.72,SW,225,0.0,0.0,99,0.19,,---,1.55,VWS V14.00,2013-02-26 15:07:00,
2013-02-26 10:12:00,35.2,35.0,29.72,SW,225,0.0,0.0,99,0.16,,---,1.55,VWS V14.00,2013-02-26 15:12:00,
2013-02-26 10:17:00,35.4,35.2,29.72,SW,225,0.0,0.0,99,0.16,,---,1.55,VWS V14.00,2013-02-26 15:17:00,
2013-02-26 10:22:00,35.4,35.2,29.70,SW,225,0.0,0.0,99,0.12,,---,1.55,VWS V14.00,2013-02-26 15:22:00,
2013-02-26 10:28:00,35.4,35.2,29.70,SW,225,0.0,0.0,99,0.14,,---,1.57,VWS V14.00,2013-02-26 15:28:00,
2013-02-26 10:33:00,35.6,35.3,29.70,SW,225,0.0,0.0,99,0.14,,---,1.59,VWS V14.00,2013-02-26 15:33:00,
2013-02-26 10:38:00,35.7,35.5,29.69,SW,225,0.0,0.0,99,0.14,,---,1.59,VWS V14.00,2013-02-26 15:38:00,
2013-02-26 10:43:00,35.7,35.5,29.68,SW,225,0.0,0.0,99,0.08,,---,1.59,VWS V14.00,2013-02-26 15:43:00,
2013-02-26 10:48:00,36.1,35.8,29.68,SW,225,0.0,0.0,99,0.08,,---,1.59,VWS V14.00,2013-02-26 15:48:00,
2013-02-26 10:53:00,36.1,35.8,29.66,SW,225,0.0,0.0,99,0.08,,---,1.61,VWS V14.00,2013-02-26 15:53:00,
2013-02-26 10:58:00,36.1,35.8,29.66,SE,135,0.0,0.0,99,0.08,,---,1.61,VWS V14.00,2013-02-26 15:58:00,
2013-02-26 11:03:00,36.3,36.0,29.65,SW,225,0.0,0.0,99,0.08,,---,1.61,VWS V14.00,2013-02-26 16:03:00,
2013-02-26 11:08:00,36.3,36.0,29.65,SW,225,0.0,2.0,99,0.10,,---,1.63,VWS V14.00,2013-02-26 16:08:00,
2013-02-26 11:13:00,36.5,36.2,29.66,SW,225,0.0,0.0,99,0.08,,---,1.63,VWS V14.00,2013-02-26 16:13:00,
2013-02-26 11:18:00,36.5,36.2,29.66,SW,225,0.0,0.0,99,0.08,,---,1.63,VWS V14.00,2013-02-26 16:18:00,
2013-02-26 11:23:00,36.6,36.3,29.66,SW,225,0.0,0.0,99,0.08,,---,1.63,VWS V14.00,2013-02-26 16:23:00,
2013-02-26 11:28:00,36.6,36.3,29.68,SW,225,0.0,0.0,99,0.08,,---,1.63,VWS V14.00,2013-02-26 16:28:00,
2013-02-26 11:33:00,36.6,36.3,29.67,SW,225,0.0,2.2,99,0.06,,---,1.63,VWS V14.00,2013-02-26 16:33:00,
2013-02-26 11:38:00,37.0,36.8,29.67,SSE,158,0.0,2.2,99,0.06,,---,1.63,VWS V14.00,2013-02-26 16:38:00,
2013-02-26 11:43:00,37.0,36.8,29.66,SSE,158,0.0,0.0,99,0.06,,---,1.65,VWS V14.00,2013-02-26 16:43:00,
2013-02-26 11:48:00,37.2,37.0,29.66,SSE,158,0.0,0.0,99,0.06,,---,1.65,VWS V14.00,2013-02-26 16:48:00,
2013-02-26 11:53:00,37.5,37.2,29.66,SSE,158,0.0,0.0,99,0.04,,---,1.65,VWS V14.00,2013-02-26 16:53:00,
2013-02-26 11:58:00,37.7,37.5,29.65,SSE,158,0.0,0.0,99,0.04,,---,1.65,VWS V14.00,2013-02-26 16:58:00,
2013-02-26 12:03:00,37.9,37.6,29.66,SSE,158,0.0,0.0,99,0.04,,---,1.65,VWS V14.00,2013-02-26 17:03:00,
2013-02-26 12:08:00,38.1,37.8,29.65,SSW,202,0.0,0.0,99,0.06,,---,1.67,VWS V14.00,2013-02-26 17:08:00,
2013-02-26 12:13:00,38.3,38.0,29.64,SSW,202,4.9,4.9,99,0.04,,---,1.67,VWS V14.00,2013-02-26 17:13:00,
2013-02-26 12:18:00,38.3,37.8,29.65,SSW,202,0.0,4.9,98,0.04,,---,1.67,VWS V14.00,2013-02-26 17:18:00,
2013-02-26 12:23:00,38.1,37.6,29.64,SSW,202,0.0,0.0,98,0.06,,---,1.69,VWS V14.00,2013-02-26 17:23:00,
2013-02-26 12:28:00,38.1,37.6,29.64,SE,135,1.7,1.7,98,0.06,,---,1.69,VWS V14.00,2013-02-26 17:28:00,
2013-02-26 12:33:00,38.1,37.6,29.64,SSW,202,3.3,5.5,98,0.08,,---,1.71,VWS V14.00,2013-02-26 17:33:00,
2013-02-26 12:38:00,38.1,37.6,29.64,SSW,202,0.0,5.5,98,0.08,,---,1.71,VWS V14.00,2013-02-26 17:38:00,
2013-02-26 12:43:00,37.9,37.4,29.63,SSW,202,0.0,0.0,98,0.06,,---,1.71,VWS V14.00,2013-02-26 17:43:00,
2013-02-26 12:48:00,37.9,37.4,29.64,SSW,202,0.0,0.0,98,0.08,,---,1.74,VWS V14.00,2013-02-26 17:48:00,
2013-02-26 12:53:00,37.9,37.4,29.64,SSW,202,0.0,0.0,98,0.08,,---,1.74,VWS V14.00,2013-02-26 17:53:00,
2013-02-26 12:58:00,37.9,37.4,29.64,SSW,202,0.0,0.0,98,0.08,,---,1.74,VWS V14.00,2013-02-26 17:58:00,
2013-02-26 13:03:00,37.9,37.4,29.64,SSW,202,0.0,0.0,98,0.08,,---,1.74,VWS V14.00,2013-02-26 18:03:00,
2013-02-26 13:09:00,37.9,37.4,29.63,SSW,202,0.0,0.0,98,0.08,,---,1.74,VWS V14.00,2013-02-26 18:09:00,
2013-02-26 13:14:00,37.9,37.1,29.62,SSW,202,0.0,0.6,97,0.06,,---,1.74,VWS V14.00,2013-02-26 18:14:00,
2013-02-26 13:19:00,37.9,37.1,29.62,SSW,202,0.0,0.6,97,0.08,,---,1.76,VWS V14.00,2013-02-26 18:19:00,
2013-02-26 13:24:00,37.9,37.1,29.63,SSW,202,0.0,0.0,97,0.08,,---,1.76,VWS V14.00,2013-02-26 18:24:00,
2013-02-26 13:29:00,38.1,37.3,29.62,SSW,202,0.0,0.0,97,0.08,,---,1.76,VWS V14.00,2013-02-26 18:29:00,
2013-02-26 13:34:00,38.3,37.8,29.62,SW,225,0.0,0.2,98,0.06,,---,1.76,VWS V14.00,2013-02-26 18:34:00,
2013-02-26 13:39:00,38.4,37.9,29.61,SW,225,0.0,0.2,98,0.06,,---,1.76,VWS V14.00,2013-02-26 18:39:00,
2013-02-26 13:44:00,38.4,37.9,29.61,SW,225,0.0,0.0,98,0.04,,---,1.76,VWS V14.00,2013-02-26 18:44:00,
2013-02-26 13:49:00,38.8,38.0,29.60,SW,225,0.0,0.0,97,0.04,,---,1.76,VWS V14.00,2013-02-26 18:49:00,
2013-02-26 13:54:00,38.8,38.0,29.60,SW,225,0.0,0.0,97,0.02,,---,1.76,VWS V14.00,2013-02-26 18:54:00,
2013-02-26 13:59:00,38.4,37.6,29.60,SSW,202,0.0,0.0,97,0.02,,---,1.76,VWS V14.00,2013-02-26 18:59:00,
2013-02-26 14:04:00,38.8,38.0,29.59,SSW,202,0.0,0.0,97,0.02,,---,1.76,VWS V14.00,2013-02-26 19:04:00,
2013-02-26 14:09:00,38.8,38.0,29.59,SSW,202,0.0,0.0,97,0.02,,---,1.76,VWS V14.00,2013-02-26 19:09:00,
2013-02-26 14:14:00,38.8,38.0,29.59,SSE,158,0.0,0.0,97,0.02,,---,1.76,VWS V14.00,2013-02-26 19:14:00,
2013-02-26 14:19:00,38.8,38.0,29.59,SSE,158,0.0,0.0,97,0.02,,---,1.76,VWS V14.00,2013-02-26 19:19:00,
2013-02-26 14:24:00,39.0,38.2,29.58,SSE,158,0.0,0.0,97,0.00,,---,1.76,VWS V14.00,2013-02-26 19:24:00,
2013-02-26 14:29:00,39.0,38.2,29.58,SSE,158,0.0,0.0,97,0.00,,---,1.76,VWS V14.00,2013-02-26 19:29:00,
2013-02-26 14:34:00,39.0,38.2,29.58,SSE,158,0.0,0.0,97,0.00,,---,1.76,VWS V14.00,2013-02-26 19:34:00,
2013-02-26 14:39:00,39.3,38.5,29.58,South,180,0.0,0.0,97,0.00,,---,1.76,VWS V14.00,2013-02-26 19:39:00,
2013-02-26 14:44:00,39.3,38.5,29.58,South,180,2.0,2.0,97,0.00,,---,1.76,VWS V14.00,2013-02-26 19:44:00,
2013-02-26 14:49:00,39.2,38.2,29.58,South,180,0.0,2.0,96,0.00,,---,1.76,VWS V14.00,2013-02-26 19:49:00,
2013-02-26 14:54:00,39.0,38.0,29.58,SSW,202,0.0,0.0,96,0.00,,---,1.76,VWS V14.00,2013-02-26 19:54:00,
2013-02-26 14:59:00,39.0,38.0,29.58,SSW,202,0.0,0.0,96,0.00,,---,1.76,VWS V14.00,2013-02-26 19:59:00,
2013-02-26 15:04:00,39.0,38.2,29.58,SSW,202,0.0,0.0,97,0.00,,---,1.76,VWS V14.00,2013-02-26 20:04:00,
2013-02-26 15:09:00,39.3,38.5,29.58,SSW,202,0.0,0.0,97,0.00,,---,1.76,VWS V14.00,2013-02-26 20:09:00,
2013-02-26 15:14:00,39.2,38.4,29.58,SSW,202,0.0,0.0,97,0.00,,---,1.76,VWS V14.00,2013-02-26 20:14:00,
2013-02-26 15:19:00,39.3,38.5,29.58,SSW,202,0.0,0.0,97,0.00,,---,1.76,VWS V14.00,2013-02-26 20:19:00,
2013-02-26 15:24:00,39.3,38.5,29.58,SSW,202,0.0,0.0,97,0.02,,---,1.78,VWS V14.00,2013-02-26 20:24:00,
2013-02-26 15:29:00,39.3,38.3,29.58,SSW,202,0.0,0.0,96,0.02,,---,1.78,VWS V14.00,2013-02-26 20:29:00,
2013-02-26 15:34:00,39.3,38.3,29.58,SSW,202,0.0,0.0,96,0.02,,---,1.78,VWS V14.00,2013-02-26 20:34:00,
2013-02-26 15:40:00,39.0,38.0,29.58,SSW,202,1.7,1.7,96,0.02,,---,1.78,VWS V14.00,2013-02-26 20:40:00,
2013-02-26 15:45:00,39.0,38.0,29.58,South,180,0.0,1.7,96,0.02,,---,1.78,VWS V14.00,2013-02-26 20:45:00,
2013-02-26 15:50:00,39.3,38.3,29.58,South,180,0.0,1.7,96,0.02,,---,1.78,VWS V14.00,2013-02-26 20:50:00,
2013-02-26 15:55:00,39.3,38.3,29.58,SSW,202,0.0,5.8,96,0.02,,---,1.78,VWS V14.00,2013-02-26 20:55:00,
2013-02-26 16:00:00,39.3,38.3,29.57,SSW,202,2.0,5.8,96,0.02,,---,1.78,VWS V14.00,2013-02-26 21:00:00,
2013-02-26 16:05:00,39.0,38.0,29.57,SSW,202,0.0,2.0,96,0.02,,---,1.78,VWS V14.00,2013-02-26 21:05:00,
2013-02-26 16:10:00,39.0,38.2,29.57,SSW,202,0.0,2.0,97,0.02,,---,1.78,VWS V14.00,2013-02-26 21:10:00,
2013-02-26 16:15:00,38.8,37.8,29.57,SSW,202,0.0,0.0,96,0.02,,---,1.78,VWS V14.00,2013-02-26 21:15:00,
2013-02-26 16:20:00,38.8,38.0,29.57,SSW,202,0.0,0.0,97,0.02,,---,1.78,VWS V14.00,2013-02-26 21:20:00,
2013-02-26 16:25:00,39.0,38.2,29.57,SSW,202,0.0,0.0,97,0.02,,---,1.78,VWS V14.00,2013-02-26 21:25:00,
2013-02-26 16:30:00,38.8,38.0,29.57,SSW,202,1.7,1.7,97,0.02,,---,1.78,VWS V14.00,2013-02-26 21:30:00,
2013-02-26 16:35:00,38.8,38.0,29.57,South,180,0.0,1.7,97,0.00,,---,1.78,VWS V14.00,2013-02-26 21:35:00,
2013-02-26 16:40:00,38.8,38.0,29.56,South,180,0.0,1.7,97,0.00,,---,1.78,VWS V14.00,2013-02-26 21:40:00,
2013-02-26 16:45:00,38.8,38.0,29.57,South,180,0.0,0.0,97,0.00,,---,1.78,VWS V14.00,2013-02-26 21:45:00,
2013-02-26 16:50:00,38.8,38.0,29.57,South,180,0.0,0.0,97,0.00,,---,1.78,VWS V14.00,2013-02-26 21:50:00,
2013-02-26 16:55:00,38.8,38.0,29.56,South,180,0.0,0.0,97,0.00,,---,1.78,VWS V14.00,2013-02-26 21:55:00,
2013-02-26 17:00:00,38.8,38.0,29.56,South,180,0.0,0.0,97,0.00,,---,1.78,VWS V14.00,2013-02-26 22:00:00,
2013-02-26 17:05:00,38.8,38.0,29.56,South,180,0.0,0.0,97,0.00,,---,1.78,VWS V14.00,2013-02-26 22:05:00,
2013-02-26 17:10:00,39.0,38.2,29.56,South,180,0.0,0.0,97,0.00,,---,1.78,VWS V14.00,2013-02-26 22:10:00,
2013-02-26 17:15:00,39.0,38.5,29.56,South,180,0.0,0.0,98,0.00,,---,1.78,VWS V14.00,2013-02-26 22:15:00,
2013-02-26 17:20:00,39.0,38.5,29.56,South,180,0.0,0.0,98,0.00,,---,1.78,VWS V14.00,2013-02-26 22:20:00,
2013-02-26 17:25:00,39.0,38.5,29.56,South,180,0.0,0.0,98,0.00,,---,1.78,VWS V14.00,2013-02-26 22:25:00,
2013-02-26 17:30:00,39.0,38.5,29.56,SSW,202,0.0,0.0,98,0.00,,---,1.78,VWS V14.00,2013-02-26 22:30:00,
2013-02-26 17:35:00,38.8,38.3,29.56,SSW,202,0.0,0.0,98,0.00,,---,1.78,VWS V14.00,2013-02-26 22:35:00,
2013-02-26 17:40:00,38.8,38.3,29.56,SSW,202,0.0,0.0,98,0.00,,---,1.78,VWS V14.00,2013-02-26 22:40:00,
2013-02-26 17:45:00,38.8,38.3,29.55,SSW,202,0.0,0.4,98,0.00,,---,1.78,VWS V14.00,2013-02-26 22:45:00,
2013-02-26 17:50:00,38.3,37.8,29.56,SSW,202,0.0,0.0,98,0.00,,---,1.78,VWS V14.00,2013-02-26 22:50:00,
2013-02-26 17:55:00,38.1,37.3,29.57,SSW,202,0.0,0.0,97,0.00,,---,1.78,VWS V14.00,2013-02-26 22:55:00,
2013-02-26 18:00:00,37.9,37.1,29.58,SSW,202,1.3,1.3,97,0.00,,---,1.78,VWS V14.00,2013-02-26 23:00:00,
2013-02-26 18:06:00,37.7,37.2,29.58,SSW,202,0.0,1.3,98,0.00,,---,1.78,VWS V14.00,2013-02-26 23:06:00,
2013-02-26 18:11:00,37.7,37.2,29.57,SSW,202,0.0,0.0,98,0.00,,---,1.78,VWS V14.00,2013-02-26 23:11:00,
2013-02-26 18:16:00,37.5,37.0,29.58,SSW,202,0.0,0.0,98,0.00,,---,1.78,VWS V14.00,2013-02-26 23:16:00,
2013-02-26 18:21:00,37.5,37.0,29.58,SSW,202,0.0,0.0,98,0.00,,---,1.78,VWS V14.00,2013-02-26 23:21:00,
2013-02-26 18:26:00,37.4,36.9,29.59,SSW,202,0.2,0.2,98,0.00,,---,1.78,VWS V14.00,2013-02-26 23:26:00,
2013-02-26 18:31:00,37.4,36.9,29.59,SSW,202,0.0,0.0,98,0.00,,---,1.78,VWS V14.00,2013-02-26 23:31:00,
2013-02-26 18:36:00,37.2,37.0,29.59,SSW,202,0.0,0.0,99,0.00,,---,1.78,VWS V14.00,2013-02-26 23:36:00,
2013-02-26 18:41:00,37.2,37.0,29.59,SSW,202,0.0,0.0,99,0.00,,---,1.78,VWS V14.00,2013-02-26 23:41:00,
2013-02-26 18:46:00,37.2,37.0,29.59,SSW,202,0.0,0.0,99,0.00,,---,1.78,VWS V14.00,2013-02-26 23:46:00,
2013-02-26 18:51:00,37.2,36.7,29.59,SSW,202,0.0,0.0,98,0.00,,---,1.78,VWS V14.00,2013-02-26 23:51:00,
2013-02-26 18:56:00,37.0,36.5,29.59,SSW,202,0.0,0.0,98,0.00,,---,1.78,VWS V14.00,2013-02-26 23:56:00,
2013-02-26 19:01:00,36.8,36.3,29.59,SSW,202,0.0,0.0,98,0.00,,---,1.78,VWS V14.00,2013-02-27 00:01:00,
2013-02-26 19:06:00,36.5,36.0,29.59,SSW,202,0.0,0.0,98,0.00,,---,1.78,VWS V14.00,2013-02-27 00:06:00,
2013-02-26 19:11:00,36.5,36.0,29.59,SSW,202,0.0,0.0,98,0.00,,---,1.78,VWS V14.00,2013-02-27 00:11:00,
2013-02-26 19:16:00,36.5,36.0,29.60,SSW,202,0.0,0.0,98,0.00,,---,1.78,VWS V14.00,2013-02-27 00:16:00,
2013-02-26 19:21:00,36.5,36.2,29.60,SSW,202,0.0,0.0,99,0.00,,---,1.78,VWS V14.00,2013-02-27 00:21:00,
2013-02-26 19:26:00,36.5,36.2,29.60,SSW,202,0.0,0.0,99,0.00,,---,1.78,VWS V14.00,2013-02-27 00:26:00,
2013-02-26 19:31:00,36.6,36.3,29.61,SSW,202,0.0,0.0,99,0.00,,---,1.78,VWS V14.00,2013-02-27 00:31:00,
2013-02-26 19:36:00,36.6,36.3,29.60,SSW,202,0.0,0.0,99,0.00,,---,1.78,VWS V14.00,2013-02-27 00:36:00,
2013-02-26 19:41:00,36.6,36.3,29.59,SSW,202,0.0,0.0,99,0.00,,---,1.78,VWS V14.00,2013-02-27 00:41:00,
2013-02-26 19:46:00,36.6,36.3,29.60,SSW,202,0.0,0.0,99,0.00,,---,1.78,VWS V14.00,2013-02-27 00:46:00,
2013-02-26 19:51:00,36.6,36.3,29.59,SSW,202,0.0,0.0,99,0.00,,---,1.78,VWS V14.00,2013-02-27 00:51:00,
2013-02-26 19:56:00,36.5,36.2,29.60,SSW,202,0.0,0.0,99,0.00,,---,1.78,VWS V14.00,2013-02-27 00:56:00,
2013-02-26 20:01:00,36.3,36.0,29.59,SSW,202,0.0,0.0,99,0.00,,---,1.78,VWS V14.00,2013-02-27 01:01:00,
2013-02-26 20:06:00,36.3,36.0,29.59,SSW,202,0.0,0.0,99,0.00,,---,1.78,VWS V14.00,2013-02-27 01:06:00,
2013-02-26 20:11:00,36.1,35.8,29.59,SSW,202,0.0,0.0,99,0.00,,---,1.78,VWS V14.00,2013-02-27 01:11:00,
2013-02-26 20:16:00,35.9,35.7,29.59,SSW,202,0.0,0.0,99,0.00,,---,1.78,VWS V14.00,2013-02-27 01:16:00,
2013-02-26 20:21:00,35.7,35.5,29.59,SSW,202,0.0,0.0,99,0.00,,---,1.78,VWS V14.00,2013-02-27 01:21:00,
2013-02-26 20:26:00,35.4,35.2,29.59,SSW,202,0.0,0.0,99,0.00,,---,1.78,VWS V14.00,2013-02-27 01:26:00,
2013-02-26 20:31:00,35.2,35.0,29.60,SSW,202,0.0,0.0,99,0.00,,---,1.78,VWS V14.00,2013-02-27 01:31:00,
2013-02-26 20:37:00,34.8,34.3,29.60,SSW,202,0.0,0.0,98,0.00,,---,1.78,VWS V14.00,2013-02-27 01:37:00,
2013-02-26 20:42:00,34.8,34.5,29.61,SSW,202,0.0,0.0,99,0.00,,---,1.78,VWS V14.00,2013-02-27 01:42:00,
2013-02-26 20:47:00,34.8,34.5,29.61,SSW,202,0.0,0.0,99,0.00,,---,1.78,VWS V14.00,2013-02-27 01:47:00,
2013-02-26 20:52:00,34.8,34.5,29.59,SW,225,1.5,1.5,99,0.00,,---,1.78,VWS V14.00,2013-02-27 01:52:00,
2013-02-26 20:57:00,35.7,35.5,29.59,WNW,292,1.7,1.7,99,0.00,,---,1.78,VWS V14.00,2013-02-27 01:57:00,
2013-02-26 21:02:00,36.3,36.3,29.59,WNW,292,2.9,2.9,100,0.00,,---,1.78,VWS V14.00,2013-02-27 02:02:00,
2013-02-26 21:07:00,37.0,37.0,29.59,West,270,0.0,6.4,100,0.00,,---,1.78,VWS V14.00,2013-02-27 02:07:00,
2013-02-26 21:12:00,37.4,37.4,29.60,West,270,0.0,0.0,100,0.00,,---,1.78,VWS V14.00,2013-02-27 02:12:00,
2013-02-26 21:17:00,37.4,37.4,29.59,West,270,0.0,0.0,100,0.00,,---,1.78,VWS V14.00,2013-02-27 02:17:00,
2013-02-26 21:22:00,37.2,37.2,29.60,West,270,0.0,0.0,100,0.00,,---,1.78,VWS V14.00,2013-02-27 02:22:00,
2013-02-26 21:27:00,37.2,37.2,29.60,West,270,0.0,0.0,100,0.00,,---,1.78,VWS V14.00,2013-02-27 02:27:00,
2013-02-26 21:32:00,37.2,37.2,29.60,West,270,0.8,0.8,100,0.00,,---,1.78,VWS V14.00,2013-02-27 02:32:00,
2013-02-26 21:37:00,37.0,37.0,29.61,West,270,0.0,0.8,100,0.00,,---,1.78,VWS V14.00,2013-02-27 02:37:00,
2013-02-26 21:42:00,36.6,36.6,29.61,West,270,0.0,0.0,100,0.00,,---,1.78,VWS V14.00,2013-02-27 02:42:00,
2013-02-26 21:47:00,36.5,36.5,29.61,West,270,0.0,0.0,100,0.00,,---,1.78,VWS V14.00,2013-02-27 02:47:00,
2013-02-26 21:52:00,36.3,36.3,29.61,West,270,0.0,0.0,100,0.00,,---,1.78,VWS V14.00,2013-02-27 02:52:00,
2013-02-26 21:57:00,36.1,36.1,29.61,West,270,0.0,0.0,100,0.00,,---,1.78,VWS V14.00,2013-02-27 02:57:00,
2013-02-26 22:02:00,35.7,35.5,29.60,West,270,0.0,0.0,99,0.00,,---,1.78,VWS V14.00,2013-02-27 03:02:00,
2013-02-26 22:07:00,35.7,35.7,29.60,West,270,0.0,0.0,100,0.00,,---,1.78,VWS V14.00,2013-02-27 03:07:00,
2013-02-26 22:12:00,35.6,35.6,29.60,West,270,1.1,1.1,100,0.00,,---,1.78,VWS V14.00,2013-02-27 03:12:00,
2013-02-26 22:17:00,35.7,35.7,29.60,West,270,0.0,1.1,100,0.00,,---,1.78,VWS V14.00,2013-02-27 03:17:00,
2013-02-26 22:22:00,35.7,35.7,29.61,West,270,0.0,0.0,100,0.00,,---,1.78,VWS V14.00,2013-02-27 03:22:00,
2013-02-26 22:27:00,35.7,35.7,29.61,West,270,0.0,0.0,100,0.00,,---,1.78,VWS V14.00,2013-02-27 03:27:00,
2013-02-26 22:32:00,35.7,35.7,29.60,West,270,0.0,0.0,100,0.00,,---,1.78,VWS V14.00,2013-02-27 03:32:00,
2013-02-26 22:37:00,35.6,35.6,29.59,West,270,0.0,0.0,100,0.00,,---,1.78,VWS V14.00,2013-02-27 03:37:00,
2013-02-26 22:42:00,35.4,35.4,29.59,West,270,0.0,0.0,100,0.00,,---,1.78,VWS V14.00,2013-02-27 03:42:00,
2013-02-26 22:47:00,35.4,35.4,29.59,West,270,0.0,0.0,100,0.00,,---,1.78,VWS V14.00,2013-02-27 03:47:00,
2013-02-26 22:52:00,34.8,34.8,29.60,West,270,0.0,0.0,100,0.00,,---,1.78,VWS V14.00,2013-02-27 03:52:00,
2013-02-26 22:57:00,34.7,34.7,29.60,West,270,0.0,0.0,100,0.00,,---,1.78,VWS V14.00,2013-02-27 03:57:00,
2013-02-26 23:02:00,34.3,34.0,29.60,West,270,0.0,0.0,99,0.00,,---,1.78,VWS V14.00,2013-02-27 04:02:00,
2013-02-26 23:07:00,34.3,34.0,29.60,West,270,0.0,0.0,99,0.00,,---,1.78,VWS V14.00,2013-02-27 04:07:00,
2013-02-26 23:12:00,33.9,33.7,29.60,West,270,0.0,0.0,99,0.00,,---,1.78,VWS V14.00,2013-02-27 04:12:00,
2013-02-26 23:17:00,33.6,33.3,29.60,West,270,0.0,0.0,99,0.00,,---,1.78,VWS V14.00,2013-02-27 04:17:00,
2013-02-26 23:22:00,33.4,33.2,29.60,West,270,0.0,0.0,99,0.00,,---,1.78,VWS V14.00,2013-02-27 04:22:00,
2013-02-26 23:27:00,33.4,33.4,29.61,West,270,0.0,0.0,100,0.00,,---,1.78,VWS V14.00,2013-02-27 04:27:00,
2013-02-26 23:32:00,33.0,33.0,29.61,West,270,0.0,0.0,100,0.00,,---,1.78,VWS V14.00,2013-02-27 04:32:00,
2013-02-26 23:37:00,33.0,33.0,29.61,West,270,0.0,0.0,100,0.00,,---,1.78,VWS V14.00,2013-02-27 04:37:00,
2013-02-26 23:42:00,32.9,32.9,29.61,West,270,0.0,0.0,100,0.00,,---,1.78,VWS V14.00,2013-02-27 04:42:00,
2013-02-26 23:48:00,32.7,32.7,29.60,West,270,0.0,0.0,100,0.00,,---,1.78,VWS V14.00,2013-02-27 04:48:00,
2013-02-26 23:53:00,32.5,32.5,29.60,West,270,0.0,0.0,100,0.00,,---,1.78,VWS V14.00,2013-02-27 04:53:00,
2013-02-26 23:58:00,32.3,32.3,29.60,West,270,0.0,0.0,100,0.00,,---,1.78,VWS V14.00,2013-02-27 04:58:00,